Lexington Weather

Lexington, Massachusetts, USA

24°F
1/21/2021 9:41am 
  • Lexington Conditions: Clear
  • Temperature: 24.3°F / -4.3°CWarmer 2.4°F than last hour.
  • Dew Point: 13.1°FIncreased 1.4°Fsince last hour.
  • Relative Humidity: 62%Decreased 2.0% since last hour.
  • Wind: Calm, 10-min avg: Calm, gust: 6 mph
  • Barometer: 29.77 inFalling 0.02  inHg/hr Falling Slowly
  • Visibility: 10 miles
  • Snow Today: Trace
  •   

Regional Weather Roundup
for Boston / Norton, MA

        
000
ASUS41 KBOX 160604
RWRBOX

REGIONAL WEATHER ROUNDUP
NATIONAL WEATHER SERVICE BOSTON/NORTON MA
100 AM EST SAT JAN 16 2021

NOTE:  "FAIR" INDICATES FEW OR NO CLOUDS BELOW 12,000 FEET WITH NO 
SIGNIFICANT WEATHER AND/OR OBSTRUCTIONS TO VISIBILITY.

MAZALL-160700-
EASTERN MASSACHUSETTS
  
CITY           SKY/WX    TMP DP  RH WIND       PRES   REMARKS
BOSTON         NOT AVBL                                               
BEVERLY        CLOUDY    41  35  79 E10       29.91F                  
LAWRENCE       CLOUDY    39  35  86 NE7       29.93F                  
BEDFORD        CLOUDY    37  34  89 NE6       29.90F                  
BLUE HILL        N/A     36  33  89 E14G26    29.87F WCI  27          
NORWOOD        CLOUDY    40  34  79 CALM      29.92F                  
MARSHFIELD     CLOUDY    43  37  81 E12G21    29.90F                  
PLYMOUTH       CLOUDY    40  34  79 E12       29.88F                  
TAUNTON        CLOUDY    39  33  79 S3        29.91F                  
NEW BEDFORD    MOCLDY    40  34  79 E6        29.90R                  
$$

MAZALL-160700-
CAPE COD AND THE ISLANDS
  
CITY           SKY/WX    TMP DP  RH WIND       PRES   REMARKS
FALMOUTH       CLEAR     41  36  81 E12G21    29.88F                  
HYANNIS        CLOUDY    43  36  76 E15G25    29.86F                  
CHATHAM        CLOUDY    43  35  73 E20G26    29.92F                  
PROVINCETOWN   CLOUDY    42  36  79 SE14      29.92F                  
NANTUCKET      MOCLDY    42  36  79 E21G30    29.87F                  
MARTHAS VNYRD  MOCLDY    41  36  82 E14G23    29.88F                  
$$
 
MAZALL-160700-
CENTRAL AND WESTERN MASSACHUSETTS
  
CITY           SKY/WX    TMP DP  RH WIND       PRES   REMARKS
WORCESTER      CLOUDY    35  32  88 E9        29.89R WCI  28          
6HR MIN TEMP:  34; 6HR MAX TEMP:  36;                                

FITCHBURG      CLOUDY    36  34  92 E5        29.93F                  
ORANGE         CLOUDY    37  32  82 SE6       29.90F                  
SPRINGFIELD    DRIZZLE   37  32  81 E8        29.88S WCI  31          
WESTFIELD      LGT RAIN  36  32  85 NE6       29.88F WCI  31          
NORTH ADAMS    LGT SNOW  35  31  85 E16G24    29.85S FOG     WCI  25  
PITTSFIELD     LGT SNOW  32  30  92 NE10G16   29.79F VSB 3/4 WCI  24  
$$
 
RIZALL-160700-
RHODE ISLAND
  
CITY           SKY/WX    TMP DP  RH WIND       PRES   REMARKS
PROVIDENCE     CLOUDY    38  33  82 NE8       29.90F                  
6HR MIN TEMP:  37; 6HR MAX TEMP:  39;                                

NEWPORT        LGT RAIN  40  35  83 E17       29.87F WCI  31          
BLOCK ISLAND   LGT RAIN  42  37  82 E15G25    29.85F                  
SMITHFIELD     LGT RAIN  36  34  92 E5        29.90F                  
WESTERLY       CLOUDY    40  34  79 E14G24    29.86F                  
$$
 
CTZALL-160700-
CONNECTICUT
  
CITY           SKY/WX    TMP DP  RH WIND       PRES   REMARKS
BRADLEY INTL   LGTSLEET  35  30  82 N7        29.86F WCI  29          
6HR MIN TEMP:  35; 6HR MAX TEMP:  41; 6HR PCP:  0.03;                

HARTFORD       LGT RAIN  39  31  72 NE7       29.84F                  
BRIDGEPORT     RAIN      42  38  85 E28G37    29.78F FOG     WCI  32  
DANBURY        RAIN      36  34  92 E8        29.79F FOG     WCI  30  
GROTON         LGT RAIN  41  35  79 E18G26    29.82F                  
NEW HAVEN      LGT RAIN  42  38  85 E12G25    29.79F FOG              
CHESTER        LGT RAIN  37  34  87 E10G17    29.79F WCI  30          
MERIDEN        LGT RAIN  38  32  79 NE3       29.81F                  
WILLIMANTIC    CLOUDY    39  30  70 NE12      29.85F WCI  32          
OXFORD         RAIN      34  34 100 NE10G18   29.78F WCI  26          
$$

MEZ002-015-021-024-NHZ003-005-008-011-012-014-VTZ005-008-160700-
NORTHERN NEW ENGLAND
  
CITY           SKY/WX    TMP DP  RH WIND       PRES   REMARKS
PORTLAND ME    LGT RAIN  40  38  93 VRB3      30.03S                  
6HR MIN TEMP:  34; 6HR MAX TEMP:  40; 6HR PCP:  0.02;                

BANGOR ME      CLOUDY    28  23  81 CALM      30.09F                  
CONCORD NH     CLOUDY    34  31  88 N6        29.93F WCI  29          
MANCHESTER NH  CLOUDY    36  33  89 NE5       29.92F                  
NASHUA NH      CLOUDY    35  35 100 CALM      29.94F                  
PORTSMOUTH NH  CLOUDY    41  36  81 E8        29.93F                  
JAFFREY NH     CLOUDY    35  32  88 VRB5      29.88F WCI  31          
KEENE NH       CLOUDY    36  33  89 VRB6      29.91F WCI  31          
BURLINGTON VT  CLOUDY    37  25  61 E6        29.87F                  
MT. WASHINGTON SNOWSHWR  16  16 100 S38         N/A  VSB 1/8 WCI  -6  
$$

NYZ052-076-160700-
EASTERN NEW YORK
  
CITY           SKY/WX    TMP DP  RH WIND       PRES   REMARKS
ALBANY         LGT SNOW  33  30  88 SE6       29.84S FOG     WCI  28  
6HR MIN TEMP:  33; 6HR MAX TEMP:  38; 6HR PCP:  0.02;                

NEW YORK CITY  CLOUDY    47  41  80 E17G26    29.71F                  
6HR MIN TEMP:  45; 6HR MAX TEMP:  47; 6HR PCP:  0.36;                

$$
 
ANZALL-160700-
MARINE OBSERVATIONS
  
STATION/POSITION TIME  TEMP    WIND        PRES    VSBY  WAVE
                       AIR SEA DIR/SP/G                  HT/PER
                 (UTC) (F)     (DEG/KT/KT) (MB)    (MI)  (FT/S)
BOSTON BUOY      0540   42 43  120/ 17/ 21 1014.2F
BUZZARDS BAY     0500           90/ 23/ 25 1012.6F
NANTUCKET SOUND  0540      41  100/ 21/ 25   N/A
MASS BAY-STELLWA 0504   43     130/ 14/ 17 1013.8F  1 7/8  3/ 6
ISLE OF SHOALS   0500   42     130/ 13/ 14 1015.5F
S OF BLOCK IS    0526      47                N/A           7/ 6
$$

......................KEY.........................
  SKY/WX - SKY CONDITION/PRESENT WEATHER
  TMP    - TEMPERATURE IN FAHRENHEIT
  DWPT   - DEWPOINT IN FAHRENHEIT
  RH     - RELATIVE HUMIDITY IN PERCENT
  WIND   - DIRECTION AND SPEED IN MPH
  PRES   - MEAN SEA LEVEL PRESSURE IN INCHES OF HG
  WCI    - WIND CHILL INDEX
  VSB    - VISIBILITY IN MILES
  HX     - HEAT INDEX
  TC     - TEMPERATURE IN CELSIUS
  VRB    - VARIABLE WIND DIRECTION
  N/A    - NOT AVAILABLE
  
      

Other recent Regional Weather Roundups

Thu Jan 21, 9:04am

Thu Jan 21, 7:04am

Thu Jan 21, 6:04am

Thu Jan 21, 5:04am

Thu Jan 21, 4:04am

Thu Jan 21, 3:04am

Thu Jan 21, 2:04am

Thu Jan 21, 1:04am

Thu Jan 21, 12:04am

Wed Jan 20, 11:04pm

Wed Jan 20, 10:05pm

Wed Jan 20, 9:04pm

Wed Jan 20, 8:04pm

Wed Jan 20, 7:04pm

Wed Jan 20, 6:05pm

Wed Jan 20, 5:05pm

Wed Jan 20, 1:04pm

Wed Jan 20, 12:04pm

Wed Jan 20, 11:04am

Wed Jan 20, 10:04am

Wed Jan 20, 9:05am

Wed Jan 20, 8:04am

Wed Jan 20, 7:04am

Wed Jan 20, 6:04am

Wed Jan 20, 5:04am

Wed Jan 20, 4:04am

Wed Jan 20, 3:05am

Wed Jan 20, 2:04am

Wed Jan 20, 1:04am

Wed Jan 20, 12:04am

Tue Jan 19, 11:04pm

Tue Jan 19, 10:04pm

Tue Jan 19, 9:04pm

Tue Jan 19, 8:04pm

Tue Jan 19, 7:04pm

Tue Jan 19, 6:05pm

Tue Jan 19, 5:04pm

Tue Jan 19, 4:05pm

Tue Jan 19, 3:04pm

Tue Jan 19, 2:04pm

Tue Jan 19, 1:04pm

Tue Jan 19, 12:05pm

Tue Jan 19, 11:04am

Tue Jan 19, 10:05am

Tue Jan 19, 9:04am

Tue Jan 19, 8:04am

Tue Jan 19, 7:04am

Tue Jan 19, 6:04am

Tue Jan 19, 5:04am

Tue Jan 19, 4:04am

Tue Jan 19, 3:04am

Tue Jan 19, 2:04am

Tue Jan 19, 1:04am

Tue Jan 19, 12:04am

Mon Jan 18, 11:04pm

Mon Jan 18, 10:04pm

Mon Jan 18, 9:04pm

Mon Jan 18, 8:05pm

Mon Jan 18, 7:04pm

Mon Jan 18, 6:05pm

Mon Jan 18, 5:04pm

Mon Jan 18, 4:04pm

Mon Jan 18, 3:04pm

Mon Jan 18, 2:04pm

Mon Jan 18, 1:04pm

Mon Jan 18, 12:04pm

Mon Jan 18, 11:04am

Mon Jan 18, 10:04am

Mon Jan 18, 9:04am

Mon Jan 18, 8:04am

Mon Jan 18, 7:04am

Mon Jan 18, 6:04am

Mon Jan 18, 5:04am

Mon Jan 18, 4:04am

Mon Jan 18, 3:04am

Mon Jan 18, 2:04am

Mon Jan 18, 1:04am

Mon Jan 18, 12:04am

Sun Jan 17, 11:04pm

Sun Jan 17, 10:04pm

Sun Jan 17, 9:04pm

Sun Jan 17, 8:04pm

Sun Jan 17, 7:04pm

Sun Jan 17, 6:04pm

Sun Jan 17, 5:04pm

Sun Jan 17, 4:05pm

Sun Jan 17, 3:04pm

Sun Jan 17, 2:04pm

Sun Jan 17, 1:04pm

Sun Jan 17, 12:04pm

Sun Jan 17, 11:04am

Sun Jan 17, 10:04am

Sun Jan 17, 9:04am

Sun Jan 17, 8:04am

Sun Jan 17, 7:04am

Sun Jan 17, 6:04am

Sun Jan 17, 5:04am

Sun Jan 17, 4:04am

Sun Jan 17, 3:04am

Sun Jan 17, 2:04am

Sun Jan 17, 1:04am

Sun Jan 17, 12:04am

Sat Jan 16, 11:05pm

Sat Jan 16, 10:04pm

Sat Jan 16, 9:04pm

Sat Jan 16, 8:05pm

Sat Jan 16, 7:04pm

Sat Jan 16, 6:04pm

Sat Jan 16, 5:05pm

Sat Jan 16, 4:05pm

Sat Jan 16, 3:05pm

Sat Jan 16, 2:04pm

Sat Jan 16, 1:04pm

Sat Jan 16, 12:04pm

Sat Jan 16, 11:04am

Sat Jan 16, 10:05am

Sat Jan 16, 9:04am

Sat Jan 16, 8:04am

Sat Jan 16, 7:04am

Sat Jan 16, 6:04am

Sat Jan 16, 5:04am

Sat Jan 16, 4:04am

Sat Jan 16, 3:05am

Sat Jan 16, 2:04am

Sat Jan 16, 12:05am

Fri Jan 15, 11:05pm

Fri Jan 15, 10:04pm

Fri Jan 15, 9:04pm

Fri Jan 15, 8:04pm

Fri Jan 15, 7:05pm

Fri Jan 15, 6:05pm

Fri Jan 15, 5:05pm

Fri Jan 15, 4:05pm

Fri Jan 15, 3:04pm

Fri Jan 15, 2:05pm

Fri Jan 15, 1:04pm

Fri Jan 15, 12:05pm

Fri Jan 15, 11:04am

Fri Jan 15, 10:04am

Fri Jan 15, 9:05am

Fri Jan 15, 8:04am

Fri Jan 15, 7:04am

Fri Jan 15, 6:04am

Fri Jan 15, 5:05am

Fri Jan 15, 4:04am

Fri Jan 15, 3:04am

Fri Jan 15, 2:04am

Fri Jan 15, 1:04am

Fri Jan 15, 12:05am

Thu Jan 14, 11:04pm

Thu Jan 14, 10:04pm

Thu Jan 14, 9:04pm

Thu Jan 14, 8:05pm

Thu Jan 14, 7:04pm

Thu Jan 14, 6:04pm

Thu Jan 14, 5:04pm

Thu Jan 14, 4:05pm

Thu Jan 14, 3:04pm

Thu Jan 14, 2:04pm

Thu Jan 14, 1:04pm

Thu Jan 14, 12:05pm

Thu Jan 14, 11:05am

Thu Jan 14, 10:04am

Thu Jan 14, 9:04am

Thu Jan 14, 8:04am

Thu Jan 14, 7:04am

Thu Jan 14, 6:04am

Thu Jan 14, 5:04am

Thu Jan 14, 4:04am

Thu Jan 14, 3:04am

Thu Jan 14, 2:04am

Thu Jan 14, 1:04am

Thu Jan 14, 12:04am

Wed Jan 13, 11:04pm

Wed Jan 13, 10:04pm

Wed Jan 13, 9:04pm

Wed Jan 13, 8:05pm

Wed Jan 13, 7:04pm

Wed Jan 13, 6:04pm

Wed Jan 13, 5:04pm

Wed Jan 13, 4:04pm

Wed Jan 13, 3:05pm

Wed Jan 13, 2:04pm

Wed Jan 13, 1:04pm

Wed Jan 13, 12:04pm

Wed Jan 13, 11:04am

Wed Jan 13, 10:04am

Wed Jan 13, 9:05am

Wed Jan 13, 8:04am

Wed Jan 13, 7:04am

Wed Jan 13, 6:04am

Wed Jan 13, 5:04am

Wed Jan 13, 4:04am

Wed Jan 13, 3:04am

Wed Jan 13, 2:04am

Wed Jan 13, 1:04am

Wed Jan 13, 12:05am

Tue Jan 12, 11:04pm

Tue Jan 12, 10:04pm

Tue Jan 12, 9:04pm

Tue Jan 12, 8:05pm

Tue Jan 12, 7:04pm

Meta data:

ID: a8486e88-033d-4055-92fe-819a23df282b
Link: https://api.weather.gov/products/a8486e88-033d-4055-92fe-819a23df282b